AirNav   Everest Fuels
 
 373 users online  

KGDY Grundy Municipal Airport
Grundy, Virginia, USA

GOING TO GRUNDY?


FAA INFORMATION EFFECTIVE 28 MARCH 2019

Location

FAA Identifier: GDY
Lat/Long: 37-13-56.6150N / 082-07-29.9880W
37-13.943583N / 082-07.499800W
37.2323931 / -82.1249967
(estimated)
Elevation: 2304 ft. / 702.3 m (surveyed)
Variation: 06W (2000)
From city: 3 miles SW of GRUNDY, VA
Time zone: UTC -4 (UTC -5 during Standard Time)
Zip code: 24656

Airport Operations

Airport use: Open to the public
Control tower: no
ARTCC: INDIANAPOLIS CENTER
FSS: LEESBURG FLIGHT SERVICE STATION
NOTAMs facility: DCA (NOTAM-D service available)
Attendance: UNATNDD
Wind indicator: yes
Segmented circle: no
Lights: ACTVT MIRL RY 04/22 - CTAF; HIGH INTSTY ONLY.
Beacon: white-green (lighted land airport)
Operates sunset to sunrise.

Airport Communications

CTAF/UNICOM: 123.0
WX AWOS-3 at JFZ (19 nm SE): 118.075 (276-596-9927)
  • APCH/DEP SERVICE PRVDD BY INDIANAPOLIS ARTCC ON FREQS 126.575/257.850 (LYNCH RCAG).

Nearby radio navigation aids

VOR radial/distance  VOR name  Freq  Var
GZGr357/24.5GLADE SPRING VOR/DME110.2002W

Airport Services

Parking: tiedowns
Airframe service: NONE
Powerplant service: NONE
Bottled oxygen: NONE
Bulk oxygen: NONE

Runway Information

Runway 4/22

Dimensions: 2256 x 60 ft. / 688 x 18 m
Surface: asphalt, in good condition
Weight bearing capacity: 
Single wheel: 7.0
Runway edge lights: medium intensity
RUNWAY 4  RUNWAY 22
Latitude: 37-13.796083N37-14.091083N
Longitude: 082-07.641217W082-07.358383W
Elevation: 2304.0 ft.2304.0 ft.
Traffic pattern: leftleft
Runway heading: 043 magnetic, 037 true223 magnetic, 217 true
Markings: basic, in fair conditionbasic, in fair condition
Visual slope indicator: panels that may or may not be lighted, on left
FADED BUT USABLE.
panels that may or may not be lighted, on left
FADED BUT USBL.
Touchdown point: yes, no lightsyes, no lights

Airport Ownership and Management from official FAA records

Ownership: Publicly-owned
Owner: TOWN OF GRUNDY
1103 PLAZA DRIVE, SUITE D
GRUNDY, VA 24614
Phone 276-935-2551
Manager: JAMES KEEN
1103 PLAZA DRIVE, SUITE D
GRUNDY, VA 24614
Phone 276-935-2551

Airport Operational Statistics

Aircraft based on the field: 12
Single engine airplanes: 11
Multi engine airplanes: 1
    
Aircraft operations: avg 80/week *
91% local general aviation
9% transient general aviation
* for 12-month period ending 30 June 2018

Additional Remarks

PAY PHONE AT AIRPORT 276-935-8022.
WILDLIFE INVOF ARPT.

Instrument Procedures

There are no published instrument procedures at KGDY.

Some nearby airports with instrument procedures:

KJFZ - Tazewell County Airport (19 nm SE)
KLNP - Lonesome Pine Airport (24 nm SW)
KEBD - Appalachian Regional Airport (27 nm N)
KPBX - Pike County Airport-Hatcher Field (29 nm NW)
KVJI - Virginia Highlands Airport (33 nm S)
 
Loc | Ops | Rwys | IFR | FBO | Links
Com | Nav | Svcs | Stats | Notes
Area around KGDY (Grundy Municipal Airport)
 
Road maps at: MapQuest Bing Google
 
Aerial photo
WARNING: Photo may not be current or correct
Aerial photo of KGDY (Grundy Municipal Airport)
Photo by Chris Berg
Photo taken 23-Jun-2013
looking northeast.

Do you have a better or more recent aerial photo of Grundy Municipal Airport that you would like to share? If so, please send us your photo.

 
Sectional chart

 
Airport distance calculator
Flying to Grundy Municipal Airport? Find the distance to fly.

From to KGDY

Sunrise and sunset
Times for 19-Apr-2019
 Local
(UTC-4)
 Zulu
(UTC)
Morning civil twilight06:2210:22
Sunrise06:5010:50
Sunset20:0600:06
Evening civil twilight20:3300:33

Current date and time
Zulu (UTC)  19-Apr-2019 09:54:03
Local (UTC-4)  19-Apr-2019 05:54:03
 
METAR
KJFZ 
19nm SE 
190935Z AUTO 17006KT 140V200 10SM OVC075 17/10 A2966 RMK AO2 T01710101
KLNP 
25nm SW 
190935Z AUTO 26003KT 10SM OVC034 15/14 A2966 RMK AO2
KPBX 
29nm NW 
190935Z AUTO 18005KT 10SM -RA BKN070 OVC095 18/13 A2957 RMK AO2 T01840128
KVJI 
34nm S 
190935Z AUTO 21014G20KT 10SM SCT070 OVC085 19/11 A2963 RMK AO2 T01940112
KI16 
35nm NE 
190935Z AUTO 10SM OVC075 20/12 A2965 RMK AO2 T02040119
TAF
KSJS 
40nm NW 
190537Z 1906/2006 16010G17KT P6SM BKN150 WS020/18040KT FM191500 18008KT 6SM -SHRA BR BKN060 FM192000 22007KT P6SM VCSH OVC050 FM192300 27005KT P6SM VCSH OVC025 FM200200 24005KT 6SM SHRA BR OVC035
KBLF 
44nm E 
190531Z 1906/2006 21015G25KT P6SM SCT050 BKN250 TEMPO 1908/1911 4SM -SHRA BR OVC020 FM191100 19016G25KT P6SM VCSH OVC035 FM191300 17016G25KT 3SM -SHRA BR VCTS SCT015 OVC035CB FM191800 16010G20KT 2SM TSRA BR BKN015 OVC035CB FM192100 19005KT 3SM SHRA BR OVC120 WS020/18040KT FM200000 22007KT 3SM BR OVC018
KTRI 
47nm S 
190547Z 1906/2006 19008G18KT P6SM SCT060 BKN250 FM191000 16010KT P6SM VCSH BKN060 FM191100 16011KT 6SM -SHRA BKN050 FM191200 16010KT 4SM SHRA BKN040 WS020/18040KT FM191700 19014KT 6SM -SHRA SCT030 BKN060 FM192200 20010KT P6SM VCSH BKN020
NOTAMs
Click for the latest NOTAMs
NOTAMs are issued by the DoD/FAA and will open in a separate window not controlled by AirNav.

 

 
 

Aviation Businesses, Services, and Facilities

  
 Business Name 
 
 Contact 
 
 Services / Description 
 
Distance
 
Comments
  
Standard Aviation 276-935-5119
no information available

If you are affiliated with Standard Aviation and would like to show here your services, contact info, web link, logo, and more, click here
on airport  
   write
 

Would you like to see your business listed on this page?

 If your business provides an interesting product or service to pilots, flight crews, aircraft, or users of the Grundy Municipal Airport, you should consider listing it here.  To start the listing process, click on the button below
 
Add a business
 

Other Pages about Grundy Municipal Airport

www.flyvirginia.com/...
 
Update a link
 
Copyright © AirNav, LLC. All rights reserved. Privacy Policy  Contact